Flag for Germany Weather past 2 weeks in Meiningen, Thuringia, Germany

Now
29 °F

Light snow. Low clouds.


Feels Like: 29 °F
Forecast: 25 / 35 °F
Wind: 2 mph from Northwest

Location: Meiningen

Current Time: Feb 1, 2015 at 12:18:06 PM

Latest Report: Feb 1, 2015 at 12:00 PM


Visibility: 3 mi

Pressure: 29.26 "Hg

Humidity: 95%

Dew point: 28 °F

Location of MeiningenLocation

Historic Weather in Meiningen — Graph

°F

Meiningen temperature yesterday

Maximum temperature yesterday: 33 °F (at 2:00 PM)
Minimum temperature yesterday: 26 °F (at 2:00 AM)
Average temperature yesterday: 30 °F

Past Weeks' High & Low Weather Summary

 TemperatureHumidityPressure
High37 °F (Jan 17, 1:00 PM)100% (Jan 18, 1:00 AM)30.40 "Hg (Jan 18, 1:00 AM)
Low22 °F (Jan 22, 2:00 AM)75% (Jan 29, 6:00 AM)28.70 "Hg (Jan 30, 3:00 AM)
Average30 °F92%29.84 "Hg
* Reported Jan 17 11:00 AM — Feb 1 11:00 AM, Meiningen, Weather by CustomWeather, © 2014

Note: Actual official high and low records may vary slightly from our data, if they occured in-between our weather recording intervals... More about our weather records

Advertising

Meiningen weather history for previous 24 hours

 ConditionsComfort  
Time TempWeatherWind HumidityBarometerVisibility
11:00 AM
Feb 1
29 °FLight snow. Low clouds.No wind97%29.26 "Hg2 mi
9:00 AM27 °FLow clouds.1 mph99%29.23 "Hg2 mi
8:00 AM27 °FLight snow. Low clouds.1 mph98%29.21 "Hg2 mi
7:00 AM26 °FLight snow. Low clouds.1 mph99%29.21 "Hg1 mi
6:00 AM26 °FLight snow. Low clouds.3 mph98%29.21 "Hg0 mi
5:00 AM26 °FPassing clouds.1 mph100%29.21 "Hg0 mi
3:00 AM27 °FLow clouds.2 mph99%29.18 "Hg0 mi
2:00 AM29 °FFog.1 mph98%29.18 "Hg2 mi
1:00 AM29 °FFog.2 mph98%29.18 "Hg1 mi
12:00 AM28 °FLow clouds.1 mph100%29.18 "Hg1 mi
11:00 PM
Jan 31
29 °FSnow flurries. Low clouds.2 mph96%29.15 "Hg3 mi
9:00 PM30 °FLight snow. Overcast.5 mph92%29.15 "Hg5 mi
8:00 PM30 °FOvercast.3 mph93%29.15 "Hg8 mi
7:00 PM29 °FOvercast.3 mph93%29.12 "Hg7 mi
6:00 PM30 °FOvercast.5 mph93%29.12 "Hg9 mi
5:00 PM30 °FOvercast.3 mph90%29.09 "Hg11 mi
4:00 PM31 °FLow clouds.3 mph89%29.06 "Hg10 mi
3:00 PM32 °FOvercast.3 mph80%29.06 "Hg25 mi
2:00 PM33 °FOvercast.5 mph76%29.06 "Hg19 mi
1:00 PM32 °FPartly sunny.6 mph79%29.03 "Hg17 mi
12:00 PM32 °FSnow flurries. Scattered clouds.3 mph86%29.03 "Hg9 mi
Weather by CustomWeather, © 2014

See weather overviewHow to use our weather pages